Flag for Spain Weather past 2 weeks in Mahón, Menorca, Spain

Now
46 °F

Cool.


Feels Like: 42 °F
Forecast: 46 / 58 °F
Wind: 7 mph from Northwest

Location: Menorca / Mahon

Current Time: Mar 1, 2015 at 12:35:44 AM

Latest Report: Feb 28, 2015 at 11:00 PM


Visibility: N/A

Pressure: 30.19 "Hg

Humidity: 76%

Dew point: 39 °F

Location of MahónLocation

Historic Weather in Mahón — Graph

°F

Mahón temperature yesterday

Maximum temperature yesterday: 56 °F (at 2:00 PM)
Minimum temperature yesterday: 46 °F (at 11:00 PM)
Average temperature yesterday: 49 °F

Past Weeks' High & Low Weather Summary

 TemperatureHumidityPressure
High62 °F (Feb 23, 4:00 PM)97% (Feb 24, 3:00 AM)30.46 "Hg (Feb 24, 3:00 AM)
Low40 °F (Feb 23, 3:00 AM)49% (Feb 25, 6:00 AM)29.56 "Hg (Feb 21, 8:00 PM)
Average51 °F78%30.02 "Hg
* Reported Feb 13 11:00 PM — Feb 28 11:00 PM, Mahón, Weather by CustomWeather, © 2015

Note: Actual official high and low records may vary slightly from our data, if they occured in-between our weather recording intervals... More about our weather records

Advertising

Mahón weather history for previous 24 hours

 ConditionsComfort  
Time TempWeatherWind HumidityBarometerVisibility
11:00 PM
Sat, Feb 28
46 °FCool.7 mph76%30.19 "HgN/A
10:00 PM46 °FPassing clouds.7 mph78%30.19 "Hg7 mi
9:00 PM47 °FCool.5 mph76%30.18 "HgN/A
8:00 PM47 °FCool.2 mph74%30.17 "HgN/A
7:00 PM49 °FOvercast.3 mph70%30.16 "Hg12 mi
6:00 PM51 °FCool.6 mph67%30.14 "HgN/A
5:00 PM53 °FCool.9 mph62%30.13 "HgN/A
4:00 PM55 °FScattered clouds.10 mph61%30.14 "Hg16 mi
3:00 PM55 °FRefreshingly cool.12 mph59%30.14 "HgN/A
2:00 PM56 °FPartly sunny.10 mph60%30.15 "Hg12 mi
1:00 PM52 °FOvercast.7 mph61%30.18 "Hg12 mi
12:00 PM52 °FCool.6 mph58%30.19 "HgN/A
11:00 AM50 °FCool.7 mph59%30.19 "HgN/A
10:00 AM50 °FOvercast.13 mph61%30.18 "Hg12 mi
9:00 AM49 °FCool.20 mph65%30.17 "HgN/A
8:00 AM48 °FOvercast.16 mph62%30.15 "Hg9 mi
7:00 AM47 °FOvercast.18 mph62%30.13 "Hg7 mi
6:00 AM47 °FCool.26 mph60%30.12 "HgN/A
5:00 AM47 °FCool.20 mph59%30.12 "HgN/A
4:00 AM48 °FOvercast.18 mph61%30.11 "Hg7 mi
3:00 AM47 °FCool.23 mph61%30.12 "HgN/A
2:00 AM47 °FCool.26 mph60%30.13 "HgN/A
1:00 AM47 °FCool.25 mph60%30.12 "HgN/A
12:00 AM47 °FCool.30 mph60%30.11 "HgN/A
Weather by CustomWeather, © 2015

See weather overviewHow to use our weather pages